New Bedford, MA

7:00 AM EDT on August 28, 2016 (GMT -0400)
New Bedford Regional

Weather History for KEWB - November, 2012

Change the Weather History Date:

Thursday, November 22, 2012

  Actual Average Record
Temperature  
Mean Temperature 42 °F -  
Max Temperature 55 °F 48 °F 64 °F (1982)
Min Temperature 30 °F 35 °F 13 °F (1987)
Degree Days  
Heating Degree Days 22    
Moisture  
Dew Point 38 °F    
Average Humidity 88    
Maximum Humidity 100    
Minimum Humidity 53    
Precipitation  
Precipitation 0.00 in - - ()
Sea Level Pressure  
Sea Level Pressure 30.20 in    
Wind  
Wind Speed 3 mph (North)    
Max Wind Speed 7 mph    
Max Gust Speed -    
Visibility 5 miles    
Events      
Averages and records for this station are not official NWS values.
T = Trace of Precipitation, MM = Missing Value Source: NWS Daily Summary

Daily Weather History Graph

Daily Weather History Graph

Search for Another Location

Airport or City:

Trip Planner

Search our weather history database for the weather conditions in past years. The results will help you decide how hot, cold, wet, or windy it might be!

Date:

Astronomy

Nov. 22, 2012 Rise Set
Actual Time 6:41 AM EST 4:18 PM EST
Civil Twilight 6:11 AM EST 4:48 PM EST
Nautical Twilight 5:37 AM EST 5:22 PM EST
Astronomical Twilight 5:04 AM EST 5:55 PM EST
Moon 1:05 PM EST (11/22) 12:54 AM EST (11/22)
Length of Visible Light 10h 37m
Length of Day
9h 36m
Waxing Gibbous, 71% of the Moon is Illuminated
Nov 22
Waxing Gibbous
Nov 28
Full
Dec 6
Last Quarter
Dec 13
New
Dec 20
First Quarter

Hourly Weather History & Observations

Time (EST) Temp. Windchill Dew Point Humidity Pressure Visibility Wind Dir Wind Speed Gust Speed Precip Events Conditions
12:12 AM 42.8 °F 41.1 °F 41.0 °F 93% 30.21 in 2.0 mi NNW 3.5 mph - N/A   Mostly Cloudy
12:19 AM 39.2 °F - 39.2 °F 100% 30.21 in 1.2 mi Calm Calm - N/A   Mostly Cloudy
12:28 AM 42.8 °F 41.1 °F 41.0 °F 93% 30.21 in 1.8 mi NNW 3.5 mph - N/A   Scattered Clouds
12:33 AM 42.8 °F 41.1 °F 41.0 °F 93% 30.21 in 3.0 mi NNW 3.5 mph - N/A   Mostly Cloudy
12:53 AM 43.0 °F 41.3 °F 41.0 °F 93% 30.21 in 3.0 mi NNW 3.5 mph - N/A   Scattered Clouds
1:53 AM 42.1 °F 40.2 °F 39.9 °F 92% 30.22 in 3.0 mi NNW 3.5 mph - N/A   Partly Cloudy
2:20 AM 42.8 °F - 39.2 °F 87% 30.21 in 2.5 mi Calm Calm - N/A   Clear
2:40 AM 42.8 °F 41.1 °F 41.0 °F 93% 30.21 in 3.0 mi North 3.5 mph - N/A   Mostly Cloudy
2:53 AM 43.0 °F 40.3 °F 41.0 °F 93% 30.21 in 3.0 mi NNW 4.6 mph - N/A   Overcast
3:53 AM 43.0 °F 40.3 °F 41.0 °F 93% 30.21 in 4.0 mi NNW 4.6 mph - N/A   Mostly Cloudy
4:53 AM 41.0 °F 39.0 °F 39.0 °F 93% 30.22 in 4.0 mi North 3.5 mph - N/A   Clear
5:53 AM 39.0 °F 34.8 °F 37.9 °F 96% 30.23 in 3.0 mi North 5.8 mph - N/A   Clear
6:46 AM 39.2 °F 35.9 °F 37.4 °F 93% 30.23 in 2.0 mi North 4.6 mph - N/A   Clear
6:53 AM 37.9 °F 34.4 °F 37.0 °F 97% 30.24 in 2.0 mi North 4.6 mph - N/A   Clear
7:04 AM 37.4 °F 33.8 °F 37.4 °F 100% 30.24 in 3.0 mi North 4.6 mph - N/A   Clear
7:53 AM 41.0 °F 39.0 °F 39.0 °F 93% 30.25 in 3.0 mi North 3.5 mph - N/A   Clear
8:00 AM 41.0 °F 38.0 °F 39.2 °F 93% 30.25 in 2.5 mi North 4.6 mph - N/A   Clear
8:10 AM 42.8 °F 41.1 °F 39.2 °F 87% 30.25 in 7.0 mi North 3.5 mph - N/A   Clear
8:53 AM 45.0 °F 42.6 °F 42.1 °F 90% 30.25 in 7.0 mi North 4.6 mph - N/A   Partly Cloudy
9:25 AM 46.4 °F 44.3 °F 42.8 °F 87% 30.26 in 4.0 mi North 4.6 mph - N/A   Mostly Cloudy
9:38 AM 44.6 °F 41.4 °F 42.8 °F 93% 30.26 in 2.0 mi North 5.8 mph - N/A   Overcast
9:51 AM 44.6 °F 40.7 °F 42.8 °F 93% 30.26 in 4.0 mi North 6.9 mph - N/A   Overcast
9:53 AM 45.0 °F 41.2 °F 42.1 °F 90% 30.26 in 4.0 mi North 6.9 mph - N/A   Overcast
10:39 AM 50.0 °F - 44.6 °F 82% 30.24 in 9.0 mi North 4.6 mph - N/A   Scattered Clouds
10:53 AM 50.0 °F - 43.0 °F 77% 30.24 in 10.0 mi Variable 4.6 mph - N/A   Partly Cloudy
11:53 AM 54.0 °F - 42.1 °F 64% 30.21 in 10.0 mi NE 5.8 mph - N/A   Partly Cloudy
12:53 PM 55.9 °F - 39.9 °F 55% 30.19 in 10.0 mi East 4.6 mph - N/A   Clear
1:53 PM 55.9 °F - 39.0 °F 53% 30.19 in 10.0 mi NNE 6.9 mph - N/A   Clear
2:53 PM 55.0 °F - 39.0 °F 55% 30.17 in 10.0 mi NE 4.6 mph - N/A   Clear
3:53 PM 51.1 °F - 39.9 °F 66% 30.18 in 10.0 mi East 6.9 mph - N/A   Clear
4:53 PM 45.0 °F 42.6 °F 39.0 °F 80% 30.19 in 10.0 mi ENE 4.6 mph - N/A   Clear
5:53 PM 43.0 °F - 37.9 °F 82% 30.20 in 10.0 mi Calm Calm - N/A   Clear
6:53 PM 37.0 °F - 35.1 °F 93% 30.20 in 10.0 mi Calm Calm - N/A   Clear
7:53 PM 36.0 °F - 34.0 °F 93% 30.19 in 8.0 mi Calm Calm - N/A   Clear
8:53 PM 35.1 °F - 33.1 °F 92% 30.18 in 8.0 mi Calm Calm - N/A   Clear
9:53 PM 33.1 °F - 30.9 °F 92% 30.16 in 8.0 mi Calm Calm - N/A   Clear
10:07 PM 30.2 °F - 30.2 °F 100% 30.16 in 1.8 mi Calm Calm - N/A   Clear
10:20 PM 33.8 °F - 30.2 °F 87% 30.15 in 3.0 mi Calm Calm - N/A   Clear
10:36 PM 32.0 °F - 30.2 °F 93% 30.15 in 1.0 mi Calm Calm - N/A   Clear
10:53 PM 32.0 °F - 30.0 °F 92% 30.15 in 4.0 mi Calm Calm - N/A   Clear
11:33 PM 32.0 °F - 30.2 °F 93% 30.14 in 1.5 mi Calm Calm - N/A   Clear
11:42 PM 32.0 °F - 30.2 °F 93% 30.14 in 0.8 mi Calm Calm - N/A   Clear
11:47 PM 30.2 °F - 30.2 °F 100% 30.14 in 2.5 mi Calm Calm - N/A   Clear
11:53 PM 30.0 °F - 28.9 °F 96% 30.14 in 7.0 mi Calm Calm - N/A   Clear